Location: Hastringsfeld
(50.9620°N, 10.4787°E)
Time: 03:34:55
(UTC+00:00)

Cosmos 2026 Rocket - Pass Details

Date: 26 September 2023
Orbit: 939 x 999 km, 82.9° (Epoch: 29 November)

Event Time Altitude Azimuth Distance (km) Brightness Sun altitude
Exits shadow 02:41:46 43° 274° (W) 1,328 4.3 -23.2°
Maximum altitude 02:42:19 44° 288° (WNW) 1,308 4.3 -23.1°
Drops below altitude 10° 02:48:10 10° 0° (N) 2,687 6.6 -22.3°
Sets 02:50:48 0° 7° (N) 3,630 7.5 -21.9°
